Location: State Line Observation Field
(36.5320°N, 77.5360°W)
Time: 17:14:19
(UTC-05:00)

N. Korean satellite - Visible Passes

Search period start: 17 November 2019 00:00
Search period end: 27 November 2019 00:00
Orbit: 456 x 506 km, 97.2° (Epoch: 17 November)

Date Brightness Start Highest point End Pass type
(mag) Time Alt. Az. Time Alt. Az. Time Alt. Az.
17 Nov 9.7 05:12:56 10° NE 05:15:34 18° E 05:18:11 10° SE visible
18 Nov 6.8 06:20:04 10° N 06:23:39 49° WNW 06:27:10 10° SSW visible
18 Nov 10.3 18:28:43 10° WSW 18:29:45 11° W 18:30:49 10° WNW visible
19 Nov 6.9 05:54:37 10° NNE 05:58:19 71° E 06:01:56 10° S visible
19 Nov 9.3 18:01:15 10° SSW 18:04:12 23° W 18:07:11 10° NW visible
20 Nov 8.7 05:29:35 10° NNE 05:32:52 30° E 05:36:07 10° SSE visible
20 Nov 7.6 17:35:12 10° S 17:38:43 52° W 17:42:20 10° NNW visible
21 Nov 10.0 05:05:16 10° ENE 05:07:20 14° E 05:09:24 10° SE visible
22 Nov 6.6 06:11:51 10° N 06:15:29 64° WNW 06:19:03 10° SSW visible
22 Nov 10.0 18:19:29 10° SW 18:21:29 14° W 18:23:32 10° WNW visible
23 Nov 7.4 05:46:30 10° NNE 05:50:06 53° E 05:53:38 10° S visible
23 Nov 8.8 17:52:44 10° SSW 17:55:57 30° W 17:59:15 10° NW visible
24 Nov 9.1 05:21:37 10° NE 05:24:38 24° E 05:27:35 10° SSE visible
24 Nov 7.0 17:26:53 10° S 17:30:30 69° W 17:34:12 10° NNW visible
25 Nov 10.2 04:57:55 10° ENE 04:59:04 11° E 05:00:12 10° ESE visible
26 Nov 6.5 06:03:37 10° N 06:07:17 84° W 06:10:51 10° SSW visible
26 Nov 9.8 18:10:38 10° SW 18:13:12 18° W 18:15:49 10° NW visible
